North Las Vegas, NV

1:39 AM PDT on August 28, 2016 (GMT -0700)
North Las Vegas

Weather History for KVGT - January, 2013

Change the Weather History Date:

Thursday, January 3, 2013

  Actual Average Record
Temperature  
Mean Temperature 40 °F 46 °F  
Max Temperature 51 °F 56 °F 66 °F (2012)
Min Temperature 30 °F 37 °F 29 °F (2015)
Degree Days  
Heating Degree Days 24 19  
Month to date heating degree days 57  
Since 1 July heating degree days 937  
Cooling Degree Days 0 0  
Month to date cooling degree days 0  
Year to date cooling degree days 0  
Moisture  
Dew Point 8 °F    
Average Humidity 30    
Maximum Humidity 49    
Minimum Humidity 12    
Precipitation  
Precipitation 0.00 in 0.03 in 0.78 in (2005)
Month to date precipitation 0.08  
Year to date precipitation 0.08  
Sea Level Pressure  
Sea Level Pressure 30.37 in    
Wind  
Wind Speed 3 mph (NW)    
Max Wind Speed 7 mph    
Max Gust Speed -    
Visibility 10 miles    
Events      
T = Trace of Precipitation, MM = Missing Value Source: NWS Daily Summary

Daily Weather History Graph

Daily Weather History Graph

Search for Another Location

Airport or City:

Trip Planner

Search our weather history database for the weather conditions in past years. The results will help you decide how hot, cold, wet, or windy it might be!

Date:

Astronomy

Jan. 03, 2013 Rise Set
Actual Time 6:52 AM PST 4:38 PM PST
Civil Twilight 6:23 AM PST 5:07 PM PST
Nautical Twilight 5:51 AM PST 5:39 PM PST
Astronomical Twilight 5:20 AM PST 6:10 PM PST
Moon 11:05 PM PST (1/3) 10:17 AM PST (1/3)
Length of Visible Light 10h 43m
Length of Day
9h 46m
Waning Gibbous, 64% of the Moon is Illuminated
Jan 3
Waning Gibbous
Jan 4
Last Quarter
Jan 11
New
Jan 18
First Quarter
Jan 26
Full

Hourly Weather History & Observations

Time (PST) Temp. Windchill Dew Point Humidity Pressure Visibility Wind Dir Wind Speed Gust Speed Precip Events Conditions
12:53 AM 39.9 °F - 12.0 °F 32% 30.30 in 10.0 mi Calm Calm - N/A   Clear
1:53 AM 35.1 °F 29.3 °F 10.9 °F 37% 30.32 in 10.0 mi South 6.9 mph - N/A   Clear
2:53 AM 32.0 °F 27.5 °F 14.0 °F 48% 30.34 in 10.0 mi West 4.6 mph - N/A   Clear
3:53 AM 30.0 °F 26.5 °F 12.0 °F 47% 30.35 in 10.0 mi West 3.5 mph - N/A   Clear
4:53 AM 30.9 °F - 12.0 °F 46% 30.35 in 10.0 mi Calm Calm - N/A   Clear
5:53 AM 32.0 °F - 12.0 °F 44% 30.37 in 10.0 mi Calm Calm - N/A   Clear
6:53 AM 30.0 °F 25.2 °F 12.9 °F 49% 30.39 in 10.0 mi West 4.6 mph - N/A   Clear
7:53 AM 33.1 °F - 12.0 °F 42% 30.42 in 10.0 mi Calm Calm - N/A   Clear
8:53 AM 39.0 °F - 12.9 °F 34% 30.42 in 10.0 mi Calm Calm - N/A   Clear
9:53 AM 43.0 °F 41.3 °F 10.0 °F 26% 30.43 in 10.0 mi NW 3.5 mph - N/A   Clear
10:53 AM 46.0 °F 44.8 °F 9.0 °F 22% 30.41 in 10.0 mi South 3.5 mph - N/A   Clear
11:53 AM 48.0 °F - 6.1 °F 18% 30.37 in 10.0 mi Calm Calm - N/A   Clear
12:53 PM 48.9 °F - 5.0 °F 17% 30.34 in 10.0 mi Calm Calm - N/A   Clear
1:53 PM 51.1 °F - 1.9 °F 13% 30.34 in 10.0 mi East 6.9 mph - N/A   Clear
2:53 PM 51.1 °F - -0.0 °F 12% 30.34 in 10.0 mi Calm Calm - N/A   Clear
3:53 PM 51.1 °F - -0.9 °F 12% 30.35 in 10.0 mi Calm Calm - N/A   Clear
4:53 PM 46.9 °F - 1.0 °F 15% 30.36 in 10.0 mi South 5.8 mph - N/A   Clear
5:53 PM 46.9 °F - -0.0 °F 14% 30.36 in 10.0 mi Calm Calm - N/A   Clear
6:53 PM 41.0 °F 37.1 °F 7.0 °F 25% 30.37 in 10.0 mi WNW 5.8 mph - N/A   Clear
7:53 PM 37.9 °F 34.4 °F 9.0 °F 30% 30.38 in 10.0 mi NNW 4.6 mph - N/A   Clear
8:53 PM 37.0 °F 33.3 °F 7.0 °F 29% 30.37 in 10.0 mi NNW 4.6 mph - N/A   Clear
9:53 PM 35.1 °F 31.0 °F 7.0 °F 31% 30.38 in 10.0 mi North 4.6 mph - N/A   Clear
10:53 PM 33.1 °F 30.0 °F 9.0 °F 37% 30.38 in 10.0 mi NNW 3.5 mph - N/A   Clear
11:53 PM 30.9 °F 27.5 °F 9.0 °F 40% 30.38 in 10.0 mi NNW 3.5 mph - N/A   Clear